Theta_e
309 310 309 309 309 309 309 310 310 310 311 310 310 309 309 309 307 312 314 310 308 306 309 312 312 314 315 318 320 321 322 322 322 322 322 324 324 325 325 327 330 333 334 353 353
309 310 309 309 309 310 310 310 310 310 311 311 310 309 308 308 311 312 313 310 309 311 318 316 315 314 316 317 319 321 322 321 321 322 323 323 323 324 323 323 326 331 341 353 353
309 309 309 310 310 310 310 310 310 311 312 312 308 308 308 310 315 318 312 313 312 314 317 314 315 315 316 316 318 320 322 321 320 321 321 322 322 323 322 323 325 326 339 350 352
310 310 309 310 309 310 310 310 310 311 312 311 308 307 309 312 316 317 313 312 313 310 314 316 317 314 316 316 317 319 320 321 320 320 320 320 321 321 322 323 325 325 327 349 350
310 310 310 309 309 309 309 309 309 311 311 311 309 308 310 315 315 316 309 311 310 310 314 317 318 318 315 316 316 317 318 320 320 320 320 321 319 320 321 322 324 328 328 339 350
310 309 308 308 308 308 309 310 310 310 311 310 309 308 314 315 312 312 313 311 312 313 314 314 318 317 317 316 316 317 316 317 319 320 320 321 321 319 320 321 322 329 334 339 346
310 309 308 309 307 308 309 310 310 310 309 309 308 311 314 316 312 312 312 313 313 313 314 314 314 317 317 316 316 316 317 318 317 319 321 321 321 319 320 321 322 326 330 335 346
307 306 306 308 308 308 309 310 310 311 308 308 307 313 317 312 312 313 314 314 314 312 311 311 312 314 317 317 317 316 317 318 318 318 317 320 323 321 320 321 322 323 326 327 332
305 305 305 307 308 307 309 308 311 309 308 308 313 315 319 312 313 315 315 315 314 311 311 309 311 311 314 317 318 317 317 318 317 318 318 319 321 321 322 321 322 323 323 326 334
304 304 305 306 308 308 308 311 313 311 311 314 314 317 317 318 316 315 315 314 314 314 314 312 312 314 314 314 320 316 317 316 317 317 317 319 319 321 322 322 321 323 323 326 333
304 305 305 306 309 309 310 315 318 320 317 318 318 318 318 317 317 317 316 316 315 315 317 316 313 314 313 313 314 316 318 315 315 316 317 318 319 320 322 321 321 322 323 325 331
304 305 306 308 310 310 312 320 318 316 318 318 317 317 316 316 318 318 317 317 316 316 316 316 315 313 313 313 315 316 320 318 318 316 317 318 320 320 321 322 322 322 323 324 329
304 307 308 311 311 314 317 317 316 316 319 319 317 317 317 317 319 319 319 318 317 316 316 317 316 315 315 314 314 315 316 318 320 316 317 317 319 321 321 322 323 322 323 324 326
306 310 311 311 314 315 316 315 315 316 324 319 316 318 317 318 321 319 318 318 318 317 317 317 317 316 316 316 315 318 315 318 319 317 324 318 320 321 321 322 322 323 322 324 326
309 310 311 311 316 316 314 316 315 318 331 315 316 315 317 317 320 320 319 319 320 319 318 320 320 318 317 318 316 316 318 317 322 324 326 319 318 321 322 321 322 323 322 323 325
308 309 313 314 313 313 314 316 318 327 319 315 315 315 316 320 321 321 321 319 320 321 319 320 318 317 318 318 319 317 318 318 322 328 334 322 318 320 324 322 322 323 323 323 325
307 310 311 311 312 313 315 319 325 317 314 317 315 316 316 320 320 319 322 321 326 326 324 323 322 318 318 319 318 318 322 326 328 332 326 318 319 320 324 323 322 323 323 324 330
309 312 312 310 310 314 316 323 316 313 315 315 315 316 316 316 318 318 321 321 322 324 327 326 329 320 319 320 319 318 321 334 330 324 319 323 320 320 325 322 322 322 323 325 331
313 317 310 307 309 314 320 314 313 313 313 314 315 315 316 315 317 318 318 317 317 319 324 328 326 319 320 320 322 321 325 326 332 326 323 321 321 325 322 321 322 322 323 326 330
312 318 310 307 311 315 316 309 312 312 313 313 315 315 317 316 316 316 321 315 315 315 317 323 327 318 320 320 321 322 324 330 330 330 330 321 320 326 322 322 323 324 325 328 333
314 317 311 308 312 314 314 312 313 312 313 314 315 316 316 316 316 316 321 318 315 316 317 322 326 321 319 320 321 322 323 326 330 332 332 325 337 332 324 323 323 324 327 331 334
313 314 311 311 313 314 313 312 310 312 313 313 314 314 315 315 315 316 316 320 315 313 318 320 328 328 319 320 320 322 322 326 331 333 332 331 338 333 333 332 324 325 327 331 333
314 313 311 311 313 314 314 314 313 313 312 313 313 313 315 314 315 315 315 317 315 313 318 321 329 331 322 321 320 321 322 326 328 331 333 335 339 332 333 333 329 326 328 332 334
311 312 311 312 311 313 315 314 313 312 311 311 313 314 314 314 314 314 316 313 313 313 316 320 327 330 332 329 319 320 322 326 328 330 331 334 330 334 335 337 337 332 333 334 336
311 310 312 313 313 313 314 313 312 313 311 312 313 313 313 316 316 316 315 315 316 316 318 321 328 328 327 321 320 319 320 319 324 326 328 327 330 334 335 337 338 339 332 334 342
309 310 309 313 312 312 310 312 312 312 312 312 313 312 313 314 316 317 316 317 317 318 318 320 327 328 330 321 319 320 320 319 319 322 325 325 334 333 333 333 335 337 338 338 340
306 307 311 313 311 311 310 311 311 311 312 311 312 313 315 315 314 315 316 316 317 318 319 320 323 326 329 325 321 321 319 320 321 320 322 334 333 331 333 331 327 330 331 331 330
Wind_Speed
19 18 17 15 14 14 13 13 12 11 14 14 13 13 14 16 19 18 16 5 5 7 9 12 12 14 17 19 23 20 19 23 31 29 24 23 24 21 17 20 22 18 12 13 19
21 19 18 17 15 14 13 13 12 12 13 14 12 13 13 15 16 15 1 1 3 4 9 9 11 12 14 16 19 21 18 30 25 26 23 26 28 19 15 19 23 18 12 17 17
22 21 19 17 15 14 13 12 12 13 13 14 12 13 12 12 16 6 5 3 2 5 12 11 12 15 18 19 21 25 26 24 25 25 25 24 21 22 21 20 27 23 18 15 16
24 22 20 18 16 14 14 13 13 14 14 13 12 12 13 10 4 8 3 5 6 8 12 11 9 15 18 21 23 25 28 27 27 25 21 22 18 21 19 23 18 24 25 22 19
25 23 21 18 16 15 14 13 13 14 14 12 11 9 9 7 4 8 3 4 7 9 12 12 12 13 19 19 21 26 27 26 22 22 25 19 21 24 24 19 23 5 18 25 20
26 24 22 19 16 14 14 15 14 14 14 12 8 6 11 11 5 3 4 5 10 10 12 14 13 12 19 21 22 20 24 24 24 22 22 24 23 21 25 23 22 10 11 14 22
27 25 23 20 16 14 14 14 15 15 11 7 6 7 11 11 1 4 7 10 9 11 13 14 15 16 12 16 19 23 23 22 21 24 23 22 27 25 25 20 22 19 14 13 15
29 26 25 20 17 14 14 14 15 12 7 5 5 8 7 3 4 9 12 11 7 10 13 14 14 16 20 19 24 15 20 22 24 23 26 23 28 29 25 25 22 23 18 17 16
31 28 27 21 17 14 14 15 7 4 4 3 5 8 3 4 8 5 8 9 5 6 8 11 11 16 16 19 19 20 20 24 27 24 23 28 30 28 26 25 25 25 25 16 17
33 30 27 21 15 13 12 10 8 1 2 6 9 7 6 6 7 10 5 7 7 5 12 8 9 13 15 12 17 20 24 23 25 23 24 27 31 27 22 27 27 22 19 20 18
37 32 27 18 13 11 9 7 5 8 14 12 11 13 12 7 13 6 5 8 8 9 12 11 9 12 15 17 20 25 26 27 20 24 24 25 26 25 22 23 28 28 23 21 20
40 34 24 12 8 8 3 7 11 10 14 10 7 9 9 6 9 7 6 9 11 12 14 10 15 15 12 13 20 17 25 26 26 21 22 26 22 27 25 20 20 27 24 22 19
40 29 13 7 5 3 8 10 13 13 8 5 4 7 6 6 9 14 13 12 14 18 17 17 18 9 13 13 16 19 23 22 29 20 22 21 25 26 26 24 16 23 25 24 20
32 19 8 7 2 13 7 14 11 8 6 5 3 2 9 7 8 10 5 11 17 14 17 14 14 12 11 17 16 18 20 26 28 15 15 22 18 21 28 26 26 20 24 25 24
20 14 8 9 13 13 16 11 12 7 3 9 9 8 16 11 11 7 10 10 18 17 14 14 12 15 16 19 15 22 18 12 14 17 21 24 18 19 25 27 29 27 23 26 26
12 11 13 8 12 18 13 11 8 6 6 10 15 21 18 13 4 4 16 8 19 22 20 24 15 13 13 10 15 15 11 9 9 14 14 23 21 22 25 29 30 28 25 25 27
8 8 14 12 14 17 13 10 6 8 19 13 25 23 12 8 11 7 10 14 10 7 12 16 18 16 7 13 13 7 3 4 4 8 12 23 24 19 28 30 35 30 27 26 25
5 5 9 15 18 14 13 10 6 16 14 19 18 25 10 13 13 14 16 16 16 13 10 10 5 13 16 15 11 19 12 5 3 10 10 20 15 12 21 28 30 29 26 26 25
4 4 11 22 16 13 10 7 7 13 16 18 21 15 18 20 13 22 10 8 8 16 8 8 5 7 7 14 8 11 4 10 11 15 11 14 17 8 8 24 25 28 27 26 25
12 9 15 23 15 14 6 2 10 11 15 15 14 14 20 19 18 19 10 2 8 12 10 6 6 6 9 11 15 14 10 2 4 7 4 17 14 11 13 20 21 25 25 23 23
7 5 15 23 14 6 7 9 9 13 14 11 16 17 18 18 20 21 3 3 7 16 18 16 5 4 6 11 14 11 17 13 4 7 5 11 4 7 17 13 18 22 22 22 22
8 4 16 22 5 6 9 7 10 12 13 10 10 14 16 19 18 11 11 5 4 10 13 8 5 10 9 5 7 14 11 5 4 7 5 4 3 6 12 4 20 19 21 23 21
7 4 5 13 6 9 12 8 9 13 13 8 9 12 16 16 14 12 11 8 7 9 4 10 4 6 11 12 7 10 4 8 14 13 4 2 5 13 12 6 8 19 20 19 20
6 5 2 4 6 11 11 10 14 9 10 13 12 12 16 17 12 11 12 12 10 8 14 11 11 10 2 17 6 7 5 16 12 9 15 2 17 19 16 14 13 9 9 11 18
5 4 3 6 8 11 10 13 17 15 7 9 6 16 16 18 17 8 18 16 12 4 9 5 8 18 17 8 3 5 6 6 2 9 4 7 19 16 15 15 11 10 4 15 15
6 5 8 11 8 11 4 13 14 17 17 10 11 17 16 13 15 20 21 17 8 7 12 10 3 12 14 7 6 3 6 3 6 5 17 13 20 14 15 16 13 10 12 14 10
11 4 5 10 9 9 7 14 17 17 6 8 16 16 17 15 21 22 18 15 16 16 16 8 7 9 5 10 9 6 3 1 3 4 8 12 12 13 12 16 13 10 12 13 13
Wind_Direction
350 346 343 337 334 334 336 333 334 333 333 322 315 307 308 309 313 288 254 319 271 271 282 272 260 250 232 242 230 224 243 240 243 244 249 257 248 226 212 233 247 244 206 89 139
350 344 339 337 333 328 326 324 324 325 325 321 307 303 305 312 306 277 130 259 150 249 273 271 257 227 230 229 231 228 232 244 246 251 255 257 250 235 225 221 239 235 121 127 145
348 343 338 333 330 326 321 316 315 315 316 319 312 306 307 315 282 111 141 165 254 288 274 285 272 269 234 236 226 226 240 252 242 258 262 264 272 247 238 218 226 231 179 165 167
348 341 339 332 328 321 317 315 312 310 313 311 309 309 312 295 331 98 213 243 274 287 277 265 255 244 244 240 235 236 241 242 260 267 257 258 270 264 220 238 228 218 224 166 182
348 343 336 332 324 319 313 309 307 306 305 304 303 314 310 232 265 138 210 246 282 270 273 272 271 260 256 254 244 237 245 248 252 256 259 272 242 255 260 240 257 280 230 176 182
350 346 340 331 323 317 311 308 307 306 303 302 296 307 263 264 81 144 231 278 275 277 275 269 269 287 289 275 263 257 249 257 254 251 246 247 251 244 246 256 239 175 252 190 180
350 350 341 330 321 314 308 306 307 307 304 287 287 283 275 265 227 244 258 279 293 285 283 272 266 270 270 265 268 265 259 261 249 243 242 243 248 244 242 234 237 202 199 229 206
355 352 346 332 320 311 305 302 308 305 298 264 286 268 273 115 255 279 270 270 259 281 276 280 281 275 271 267 280 261 257 248 239 227 235 239 242 233 235 232 226 234 201 206 219
357 352 346 332 319 307 304 309 313 299 251 249 247 231 276 185 234 298 296 270 314 266 277 287 264 260 255 254 256 247 247 238 244 224 226 220 240 238 223 225 236 219 219 187 211
355 349 343 332 315 306 309 313 275 208 225 247 257 254 240 304 333 315 263 279 268 256 241 226 235 238 232 224 250 245 237 237 255 226 220 223 232 241 225 217 219 224 203 195 210
354 348 339 327 311 307 316 269 236 200 217 270 290 279 291 320 311 274 200 243 240 249 274 224 274 250 256 269 268 269 297 266 227 246 225 228 234 225 243 218 207 217 206 209 190
353 346 336 325 312 314 278 282 355 308 309 290 280 268 277 289 287 218 233 251 234 254 239 261 252 267 267 247 257 255 260 271 273 220 229 230 225 237 216 241 213 206 209 206 186
354 348 351 344 333 245 283 316 325 323 281 121 327 299 337 287 288 306 221 275 264 274 274 258 262 248 258 252 246 254 249 247 259 230 225 232 237 211 222 231 224 210 212 205 199
355 1 26 12 301 334 353 333 324 339 273 77 348 86 302 241 303 256 284 277 280 276 301 301 332 264 244 252 246 256 229 239 255 221 257 210 226 220 209 218 222 234 206 200 197
1 25 19 7 322 349 332 323 328 251 304 359 326 306 266 260 308 28 283 277 265 286 275 259 266 259 268 263 223 242 264 245 282 266 249 201 226 221 203 206 216 214 213 202 188
359 24 18 345 306 347 323 321 277 242 359 346 336 328 314 50 328 333 271 288 288 277 270 284 250 244 263 295 287 255 263 262 313 272 253 223 206 232 190 198 207 205 205 201 184
342 349 18 355 335 329 322 283 268 24 340 346 334 321 346 6 344 329 294 314 259 291 290 266 269 220 230 256 238 176 136 210 228 210 221 193 191 227 178 196 196 195 201 195 181
0 343 358 351 336 324 306 270 340 359 353 337 325 309 355 22 349 323 334 341 336 347 320 308 312 189 198 224 234 203 204 284 184 205 196 181 191 220 250 185 190 191 193 188 188
347 279 5 352 336 320 290 31 357 347 335 333 318 346 345 356 350 324 350 30 328 340 343 309 274 154 214 231 199 233 174 297 312 271 159 175 168 175 222 171 180 178 187 184 181
334 287 25 349 332 297 309 338 354 360 333 329 328 333 332 350 344 325 29 77 323 329 323 278 280 212 174 243 213 226 134 288 218 191 297 161 177 140 183 165 179 172 175 174 177
302 285 7 339 308 334 15 0 344 333 349 333 322 317 340 341 328 327 57 108 345 324 315 290 283 257 204 217 251 212 233 204 225 120 247 139 86 329 151 175 174 171 158 167 183
299 330 359 345 9 9 13 335 321 338 337 327 312 338 339 332 332 320 356 66 33 309 313 300 293 289 250 246 252 299 313 329 280 24 316 141 285 62 95 96 167 184 164 161 176
328 298 67 11 22 356 9 337 342 339 341 341 316 325 325 336 322 320 324 112 243 4 295 332 255 285 207 185 223 263 299 62 306 280 244 42 151 101 104 98 112 161 175 159 175
321 343 4 314 65 343 349 347 339 4 332 346 301 306 342 334 334 293 311 331 15 324 306 292 288 292 312 258 146 242 241 150 230 322 46 49 122 95 72 66 47 115 125 150 164
12 6 36 315 349 332 312 310 340 351 341 328 319 344 336 322 323 315 333 333 343 337 295 346 297 326 304 322 296 258 261 266 133 285 49 319 103 82 73 76 61 22 187 161 158
339 347 332 285 305 315 64 347 330 334 323 323 325 326 316 325 324 315 317 318 319 303 345 339 292 305 293 259 249 240 272 222 285 312 147 249 78 81 67 73 71 45 37 32 141
352 299 278 286 333 311 5 330 318 327 329 322 324 313 319 338 318 300 292 283 277 287 303 304 331 338 290 275 208 227 191 94 321 338 347 36 88 85 65 69 55 46 35 40 34